CW2578 Weather Reports


time (UTC)temp
F
wind
direction
speed
knots
gust
knots
rain 1hr
in
rain 24hr
in
rain mn
in
humidity
%
barometer
mb
20260906100307 63 65 0.0 0.0 0.00 0.00 0.00 92 1017.6
20260906095807 64 65 0.0 0.0 0.00 0.00 0.00 92 1017.7
20260906095308 64 65 0.0 0.0 0.00 0.00 0.00 92 1017.7
20260906094808 64 65 0.0 0.0 0.00 0.00 0.00 92 1017.7
20260906094308 64 65 0.0 0.0 0.00 0.00 0.00 92 1017.6
20260906093808 64 65 0.0 0.0 0.00 0.00 0.00 92 1017.6
20260906093308 64 65 0.0 0.0 0.00 0.00 0.00 92 1017.6
20260906092807 64 65 0.0 0.0 0.00 0.00 0.00 92 1017.5
20260906092308 64 65 0.0 0.0 0.00 0.00 0.00 92 1017.5
20260906091807 64 65 0.0 0.0 0.00 0.00 0.00 92 1017.5
20260906091307 65 65 0.0 0.0 0.00 0.00 0.00 92 1017.5
20260906090808 65 65 0.0 0.0 0.00 0.00 0.00 91 1017.5
20260906090307 65 65 0.0 0.0 0.00 0.00 0.00 91 1017.4
20260906085808 65 65 0.0 0.0 0.00 0.00 0.00 91 1017.4
20260906085308 65 65 0.0 0.0 0.00 0.00 0.00 91 1017.4
20260906084808 65 65 0.0 0.0 0.00 0.00 0.00 91 1017.4
20260906084307 65 65 0.0 0.0 0.00 0.00 0.00 91 1017.3
20260906083808 66 65 0.0 0.0 0.00 0.00 0.00 91 1017.3
20260906083307 66 65 0.0 0.0 0.00 0.00 0.00 91 1017.2
20260906082807 66 65 0.0 0.0 0.00 0.00 0.00 90 1017.2
20260906082308 66 65 0.0 0.9 0.00 0.00 0.00 90 1017.2
20260906081807 66 65 0.0 0.9 0.00 0.00 0.00 90 1017.1
20260906081307 66 65 0.0 0.9 0.00 0.00 0.00 90 1017.1
20260906080808 67 65 0.0 0.0 0.00 0.00 0.00 90 1017.1
20260906080308 67 65 0.0 0.0 0.00 0.00 0.00 90 1017.0
20260906075808 67 65 0.0 0.0 0.00 0.00 0.00 90 1017.1
20260906075307 67 65 0.0 0.0 0.00 0.00 0.00 89 1017.1
20260906074808 68 65 0.0 0.0 0.00 0.00 0.00 89 1017.1
20260906074307 68 65 0.0 0.9 0.00 0.00 0.00 89 1017.1
20260906073807 68 65 0.0 0.9 0.00 0.00 0.00 89 1017.1
20260906073308 68 65 0.0 0.9 0.00 0.00 0.00 89 1017.2
20260906072808 68 49 0.0 0.0 0.00 0.00 0.00 89 1017.2
20260906072307 69 49 0.0 0.9 0.00 0.00 0.00 89 1017.2
20260906071808 69 49 0.0 0.9 0.00 0.00 0.00 89 1017.1
20260906071329 69 49 0.0 0.9 0.00 0.00 0.00 89 1017.1
20260906070808 69 49 0.0 0.9 0.00 0.00 0.00 89 1017.2
20260906070308 69 72 0.0 0.9 0.00 0.00 0.00 89 1017.2
20260906065808 69 59 0.0 0.9 0.00 0.00 0.00 89 1017.1
20260906065308 69 61 0.0 0.9 0.00 0.00 0.00 89 1017.1
20260906064809 69 5 0.0 0.9 0.00 0.00 0.00 88 1016.9
20260906064329 69 360 0.0 0.9 0.00 0.00 0.00 88 1017.0
20260906063807 69 355 0.0 0.9 0.00 0.00 0.00 88 1017.1
20260906063308 70 78 0.0 0.9 0.00 0.00 0.00 88 1017.2
20260906062808 70 84 0.0 0.9 0.00 0.00 0.00 88 1017.2
20260906062308 70 78 0.0 1.7 0.00 0.00 0.00 88 1017.1
20260906061829 70 78 0.0 4.3 0.00 0.00 0.00 88 1017.0
20260906061308 70 78 0.0 4.3 0.00 0.00 0.00 88 1017.1
20260906060808 70 49 0.0 4.3 0.00 0.00 0.00 88 1017.0
20260906060308 70 51 0.0 2.6 0.00 0.00 0.00 88 1017.0
20260906055808 71 324 0.0 3.5 0.00 0.00 0.00 88 1016.9
20260906055308 71 346 0.0 3.5 0.00 0.00 0.00 89 1016.9
20260906054808 71 79 0.0 3.5 0.00 0.00 0.00 89 1016.8
20260906054329 71 81 0.0 1.7 0.00 0.00 0.00 89 1016.7
20260906053829 71 86 0.0 1.7 0.00 0.00 0.00 89 1016.7
20260906053308 71 56 0.0 1.7 0.00 0.00 0.00 89 1016.7
20260906052808 71 16 0.0 0.9 0.00 0.00 0.00 89 1016.6
20260906052308 71 16 0.0 0.9 0.00 0.00 0.00 89 1016.6
20260906051829 71 16 0.0 0.0 0.00 0.00 0.00 89 1016.6
20260906051329 71 16 0.0 0.0 0.00 0.00 0.00 89 1016.6
20260906050808 71 16 0.0 0.9 0.00 0.00 0.00 89 1016.6
20260906050308 71 16 0.0 0.9 0.00 0.00 0.00 88 1016.5
20260906045808 71 16 0.0 0.9 0.00 0.00 0.00 88 1016.5
20260906045308 71 16 0.0 0.9 0.00 0.00 0.00 88 1016.5
20260906044808 71 16 0.0 0.9 0.00 0.00 0.00 88 1016.6
20260906044309 71 16 0.0 0.9 0.00 0.00 0.00 88 1016.5
20260906043829 72 46 0.0 0.9 0.00 0.00 0.00 87 1016.5
20260906043308 72 46 0.0 1.7 0.00 0.00 0.00 87 1016.4
20260906042829 72 46 0.0 1.7 0.00 0.00 0.00 87 1016.4
20260906042308 72 46 0.0 2.6 0.00 0.00 0.00 87 1016.4
20260906041829 72 22 0.0 2.6 0.00 0.00 0.00 87 1016.4
20260906041308 72 22 0.0 2.6 0.00 0.00 0.00 87 1016.4
20260906040808 72 10 0.0 1.7 0.00 0.00 0.00 87 1016.5
20260906040308 72 19 0.0 1.7 0.00 0.00 0.00 87 1016.5
20260906035808 72 19 0.9 1.7 0.00 0.00 0.00 87 1016.5
20260906035308 72 37 0.9 1.7 0.00 0.00 0.00 87 1016.5
20260906034808 72 84 0.9 1.7 0.00 0.00 0.00 87 1016.3
20260906034308 72 83 0.9 1.7 0.00 0.00 0.00 87 1016.2
20260906033808 72 67 0.9 3.5 0.00 0.00 0.00 87 1016.3
20260906033308 72 47 0.9 3.5 0.00 0.00 0.00 87 1016.2
20260906032808 72 348 0.9 3.5 0.00 0.00 0.00 87 1016.3
20260906032329 72 30 0.9 5.2 0.00 0.00 0.00 87 1016.2
20260906031829 72 9 0.9 5.2 0.00 0.00 0.00 87 1016.2
20260906031309 72 338 0.9 5.2 0.00 0.00 0.00 87 1016.2
20260906030808 72 30 0.9 1.7 0.00 0.00 0.00 87 1016.1
20260906030309 72 69 0.9 0.9 0.00 0.00 0.00 87 1016.2
20260906025808 72 24 0.9 0.9 0.00 0.00 0.00 87 1016.1
20260906025308 72 24 0.9 1.7 0.00 0.00 0.00 86 1016.2
20260906024809 72 74 0.9 1.7 0.00 0.00 0.00 86 1016.2
20260906024308 72 67 0.9 1.7 0.00 0.00 0.00 86 1016.0
20260906023808 72 51 0.9 1.7 0.00 0.00 0.00 86 1016.1
20260906023330 72 17 0.9 0.9 0.00 0.00 0.00 87 1016.0
20260906022808 72 57 0.9 2.6 0.00 0.00 0.00 86 1016.0
20260906022308 72 53 0.9 2.6 0.00 0.00 0.00 86 1016.1
20260906021830 72 59 0.9 2.6 0.00 0.00 0.00 86 1016.0
20260906021329 72 73 0.9 1.7 0.00 0.00 0.00 86 1015.8
20260906020830 72 82 0.9 1.7 0.00 0.00 0.00 86 1015.8
20260906020309 72 59 0.9 1.7 0.00 0.00 0.00 86 1015.7
20260906015809 72 59 0.9 1.7 0.00 0.00 0.00 86 1015.6
20260906015309 72 73 0.9 1.7 0.00 0.00 0.00 86 1015.6
20260906014809 73 16 0.9 1.7 0.00 0.00 0.00 86 1015.6
20260906014309 73 348 0.9 3.5 0.00 0.00 0.00 86 1015.4
20260906013809 73 5 0.9 3.5 0.00 0.00 0.00 86 1015.3
20260906013330 73 5 0.9 3.5 0.00 0.00 0.00 86 1015.4
20260906012808 73 34 0.9 0.9 0.00 0.00 0.00 86 1015.5
20260906012309 73 89 0.9 1.7 0.00 0.00 0.00 86 1015.4
20260906011808 73 89 0.9 3.5 0.00 0.00 0.00 86 1015.3
20260906011308 73 313 0.9 3.5 0.00 0.00 0.00 86 1015.1
20260906010809 73 82 0.9 3.5 0.00 0.00 0.00 86 1015.1
20260906010309 73 20 0.9 3.5 0.00 0.00 0.00 86 1015.1
20260906005808 73 74 0.9 3.5 0.00 0.00 0.00 86 1015.0
20260906005308 73 74 0.9 3.5 0.00 0.00 0.00 86 1015.0
20260906004809 73 48 0.9 5.2 0.00 0.00 0.00 86 1015.0
20260906004308 74 258 0.9 5.2 0.00 0.00 0.00 85 1014.9
20260906003808 74 24 0.9 5.2 0.00 0.00 0.00 86 1014.8
20260906003309 74 51 0.9 2.6 0.00 0.00 0.00 85 1014.8
20260906002809 74 43 0.9 3.5 0.00 0.00 0.00 85 1014.8
20260906002309 74 77 0.9 5.2 0.00 0.00 0.00 85 1014.8
20260906001809 74 46 0.9 5.2 0.00 0.00 0.00 85 1014.5
20260906001308 75 45 0.9 5.2 0.00 0.00 0.00 84 1014.4
20260906000808 75 19 0.9 4.3 0.00 0.00 0.00 83 1014.3
20260906000311 76 149 0.9 4.3 0.00 0.00 0.00 83 1014.4
20260905235808 76 360 0.9 4.3 0.00 0.00 0.00 82 1014.5
20260905235308 77 82 0.9 4.3 0.00 0.00 0.00 82 1014.4
20260905234808 77 138 0.9 4.3 0.00 0.00 0.00 83 1014.2
20260905234308 78 116 0.9 4.3 0.00 0.00 0.00 82 1014.0
20260905233829 78 30 0.9 6.1 0.00 0.00 0.00 82 1014.0
20260905233330 79 85 0.9 6.1 0.00 0.00 0.00 81 1014.0
20260905232808 79 74 0.9 6.1 0.00 0.00 0.00 80 1013.9
20260905232309 80 38 0.9 6.1 0.00 0.00 0.00 80 1013.7
20260905231830 80 94 0.9 6.1 0.00 0.00 0.00 79 1013.8
20260905231309 81 55 0.9 6.1 0.00 0.00 0.00 78 1013.6
20260905230809 81 332 0.9 6.1 0.00 0.00 0.00 78 1013.6
20260905230309 81 9 0.9 5.2 0.00 0.00 0.00 79 1013.6
20260905225809 81 58 0.9 5.2 0.00 0.00 0.00 78 1013.6
20260905225308 81 57 0.9 5.2 0.00 0.00 0.00 78 1013.6
20260905224809 81 61 0.9 4.3 0.00 0.00 0.00 78 1013.5
20260905224309 81 49 0.9 5.2 0.00 0.00 0.00 78 1013.4
20260905223808 81 5 0.9 5.2 0.00 0.00 0.00 77 1013.4
20260905223309 82 64 0.9 6.1 0.00 0.00 0.00 76 1013.4
20260905222809 82 18 0.9 6.1 0.00 0.00 0.00 75 1013.3
20260905222308 83 115 0.9 6.1 0.00 0.00 0.00 74 1013.2
20260905221830 84 49 0.9 6.1 0.00 0.00 0.00 73 1013.0
20260905221308 84 342 0.9 4.3 0.00 0.00 0.00 73 1013.0
20260905220809 84 135 0.9 4.3 0.00 0.00 0.00 73 1013.0
20260905220309 85 327 0.9 4.3 0.00 0.00 0.00 72 1012.9
20260905215808 86 5 0.9 4.3 0.00 0.00 0.00 71 1012.9
20260905215308 86 74 0.9 4.3 0.00 0.00 0.00 71 1012.9
20260905214809 86 60 0.9 4.3 0.00 0.00 0.00 71 1012.9
20260905214329 86 360 0.9 4.3 0.00 0.00 0.00 73 1012.9
20260905213830 85 40 0.9 6.1 0.00 0.00 0.00 74 1012.9
20260905213309 85 66 0.9 7.0 0.00 0.00 0.00 73 1012.9
20260905212808 85 146 0.9 7.0 0.00 0.00 0.00 73 1012.9
20260905212309 85 30 0.9 7.0 0.00 0.00 0.00 74 1012.9
20260905211809 85 40 0.9 4.3 0.00 0.00 0.00 73 1012.8
20260905211309 86 10 0.9 4.3 0.00 0.00 0.00 72 1012.8
20260905210809 86 98 0.9 4.3 0.00 0.00 0.00 75 1012.8
20260905210308 85 67 0.9 5.2 0.00 0.00 0.00 75 1012.9
20260905205830 85 355 0.9 5.2 0.00 0.00 0.00 75 1012.8
20260905205309 85 360 0.9 5.2 0.00 0.00 0.00 73 1012.7
20260905204809 86 74 0.9 7.0 0.00 0.00 0.00 72 1012.7
20260905204330 86 9 0.9 7.0 0.00 0.00 0.00 72 1012.7
20260905203809 87 360 0.9 6.1 0.00 0.00 0.00 71 1012.8
20260905203330 88 84 0.9 4.3 0.00 0.00 0.00 70 1012.8
20260905202830 88 49 0.9 6.1 0.00 0.00 0.00 72 1012.8
20260905202309 88 42 0.9 6.1 0.00 0.00 0.00 70 1012.7
20260905201809 87 100 0.9 6.1 0.00 0.00 0.00 73 1012.7
20260905201309 88 44 0.9 6.1 0.00 0.00 0.00 70 1012.9
20260905200830 89 339 0.9 6.1 0.00 0.00 0.00 72 1013.0
20260905200309 88 80 0.9 6.1 0.00 0.00 0.00 72 1013.0
20260905195809 87 35 0.9 3.5 0.00 0.00 0.00 74 1013.0
20260905195309 86 78 0.9 4.3 0.00 0.00 0.00 74 1013.0
20260905194809 87 344 0.9 4.3 0.00 0.00 0.00 74 1013.1
20260905194309 87 241 0.9 4.3 0.00 0.00 0.00 73 1013.1
20260905193809 86 40 0.9 5.2 0.00 0.00 0.00 73 1013.0
20260905193309 87 5 0.9 5.2 0.00 0.00 0.00 73 1013.1
20260905192830 88 63 0.9 5.2 0.00 0.00 0.00 72 1013.1
20260905192330 88 355 0.9 4.3 0.00 0.00 0.00 70 1013.0
20260905191830 87 91 0.9 3.5 0.00 0.00 0.00 75 1013.0
20260905191309 86 51 0.9 3.5 0.00 0.00 0.00 77 1013.1
20260905190809 86 54 0.9 3.5 0.00 0.00 0.00 76 1013.2
20260905190309 86 355 0.9 3.5 0.00 0.00 0.00 75 1013.2
20260905185809 87 14 0.9 3.5 0.00 0.00 0.00 75 1013.2
20260905185309 86 75 0.9 3.5 0.00 0.00 0.00 76 1013.3
20260905184809 85 89 0.9 3.5 0.00 0.00 0.00 76 1013.3
20260905184309 86 85 0.9 3.5 0.00 0.00 0.00 74 1013.2
20260905183809 87 318 0.9 5.2 0.00 0.00 0.00 77 1013.2
20260905183310 85 319 0.9 5.2 0.00 0.00 0.00 76 1013.1
20260905182831 85 170 0.9 5.2 0.00 0.00 0.00 77 1013.2
20260905182309 84 232 0.9 1.7 0.00 0.00 0.00 79 1013.3
20260905181810 83 137 0.9 1.7 0.00 0.00 0.00 80 1013.4
20260905181309 83 143 0.9 1.7 0.00 0.00 0.00 82 1013.4
20260905180809 83 143 0.9 1.7 0.00 0.00 0.00 81 1013.3
20260905180310 83 157 0.9 1.7 0.00 0.00 0.00 81 1013.3
20260905175830 83 157 0.9 4.3 0.00 0.00 0.00 80 1013.5
20260905175309 84 157 0.9 4.3 0.00 0.00 0.00 80 1013.5
20260905174810 84 231 0.9 4.3 0.00 0.00 0.00 77 1013.6
20260905174309 85 291 0.9 4.3 0.00 0.00 0.00 77 1013.5
20260905173831 84 215 0.9 4.3 0.00 0.00 0.00 77 1013.4
20260905173309 85 121 0.9 4.3 0.00 0.00 0.00 79 1013.5
20260905172810 84 141 0.9 4.3 0.00 0.01 0.00 78 1013.7
20260905172309 83 226 0.9 4.3 0.00 0.07 0.00 79 1013.7
20260905171809 84 175 0.9 4.3 0.00 0.11 0.00 80 1013.6
20260905171309 82 155 0.9 4.3 0.00 0.11 0.00 79 1013.6
20260905170830 83 190 0.9 4.3 0.00 0.11 0.00 79 1013.7
20260905170310 82 155 0.9 4.3 0.00 0.11 0.00 81 1013.9
20260905165809 83 173 0.9 4.3 0.00 0.11 0.00 79 1013.8
20260905165330 84 247 0.0 4.3 0.00 0.11 0.00 77 1013.9
20260905164809 84 182 0.0 4.3 0.00 0.11 0.00 79 1013.8
20260905164309 82 225 0.0 4.3 0.00 0.11 0.00 81 1014.0
20260905163809 82 179 0.0 4.3 0.00 0.11 0.00 81 1013.9
20260905163309 82 177 0.0 3.5 0.00 0.11 0.00 80 1013.9
20260905162809 82 190 0.0 4.3 0.00 0.11 0.00 82 1014.0
20260905162309 82 205 0.0 4.3 0.00 0.11 0.00 80 1014.0
20260905161809 82 161 0.0 4.3 0.00 0.11 0.00 83 1014.1
20260905161309 81 162 0.0 4.3 0.00 0.11 0.00 83 1014.2
20260905160810 81 192 0.0 4.3 0.00 0.11 0.00 82 1014.1
20260905160330 80 169 0.0 3.5 0.00 0.11 0.00 83 1014.2
20260905155809 80 165 0.0 3.5 0.00 0.11 0.00 83 1014.1
20260905155309 80 248 0.0 3.5 0.00 0.11 0.00 83 1014.1
20260905154809 80 118 0.0 3.5 0.00 0.11 0.00 83 1014.1
20260905154330 80 118 0.0 3.5 0.00 0.11 0.00 83 1014.0
20260905153809 80 203 0.0 2.6 0.00 0.11 0.00 82 1014.1
20260905153309 80 348 0.0 2.6 0.00 0.11 0.00 82 1014.1
20260905152809 80 188 0.0 2.6 0.00 0.11 0.00 82 1014.1
20260905152330 81 347 0.0 1.7 0.00 0.11 0.00 82 1014.1
20260905151810 80 355 0.0 3.5 0.00 0.11 0.00 84 1014.1
20260905151310 79 5 0.0 3.5 0.00 0.11 0.00 85 1013.9
20260905150810 79 55 0.0 3.5 0.00 0.11 0.00 85 1013.9
20260905150310 78 187 0.0 3.5 0.00 0.11 0.00 85 1014.0
20260905145810 78 355 0.0 1.7 0.00 0.11 0.00 86 1014.0
20260905145330 78 273 0.0 0.9 0.00 0.11 0.00 86 1013.9
20260905144810 77 105 0.0 1.7 0.00 0.11 0.00 87 1014.0
20260905144310 77 105 0.0 1.7 0.00 0.11 0.00 86 1014.2
20260905143831 77 105 0.0 1.7 0.00 0.11 0.00 86 1014.3
20260905143309 77 5 0.0 1.7 0.00 0.11 0.00 86 1014.2
20260905142830 77 62 0.0 1.7 0.00 0.11 0.00 87 1014.1
20260905142309 77 329 0.0 0.9 0.00 0.11 0.00 87 1014.0
20260905141810 77 329 0.0 1.7 0.00 0.11 0.00 87 1014.0
20260905141330 76 317 0.0 1.7 0.00 0.11 0.00 87 1014.1
20260905140810 76 53 0.0 1.7 0.00 0.11 0.00 88 1013.9
20260905140310 76 130 0.0 1.7 0.00 0.11 0.00 87 1014.0
20260905135810 76 150 0.0 1.7 0.00 0.11 0.00 88 1013.9
20260905135309 76 28 0.0 0.9 0.00 0.11 0.00 89 1013.8
20260905134810 75 319 0.0 0.9 0.00 0.11 0.00 89 1013.8
20260905134309 75 134 0.0 0.9 0.00 0.11 0.00 90 1013.9
20260905133810 75 134 0.0 0.9 0.00 0.11 0.00 90 1013.9
20260905133309 75 134 0.0 0.9 0.00 0.11 0.00 90 1013.9
20260905132810 75 134 0.0 2.6 0.00 0.11 0.00 90 1013.8
20260905132309 75 134 0.0 2.6 0.00 0.11 0.00 90 1013.7
20260905131810 74 140 0.0 2.6 0.00 0.11 0.00 90 1013.7
20260905131310 74 184 0.0 1.7 0.00 0.11 0.00 91 1013.7
20260905130810 74 241 0.0 2.6 0.00 0.11 0.00 91 1013.6
20260905130309 74 241 0.0 3.5 0.00 0.11 0.00 91 1013.7
20260905125810 74 241 0.0 3.5 0.00 0.11 0.00 91 1013.7
20260905125310 74 80 0.0 4.3 0.00 0.11 0.00 91 1013.5
20260905124810 73 171 0.0 4.3 0.00 0.11 0.00 91 1013.4
20260905124310 73 143 0.0 4.3 0.00 0.11 0.00 91 1013.4
20260905123810 73 179 0.0 3.5 0.00 0.11 0.00 92 1013.4
20260905123310 73 243 0.0 3.5 0.00 0.11 0.00 92 1013.4
20260905122830 72 208 0.0 3.5 0.00 0.11 0.00 92 1013.2
20260905122310 72 167 0.0 3.5 0.00 0.11 0.00 92 1013.3
20260905121810 72 182 0.0 0.9 0.00 0.11 0.00 92 1013.1
20260905121331 72 182 0.0 2.6 0.00 0.11 0.00 92 1013.2
20260905120810 72 182 0.0 2.6 0.00 0.11 0.00 92 1013.2
20260905120310 72 182 0.0 2.6 0.00 0.11 0.00 92 1013.2
20260905115810 72 175 0.0 1.7 0.00 0.11 0.00 92 1013.1
20260905115310 72 175 0.0 0.9 0.00 0.11 0.00 92 1013.0
20260905114810 72 175 0.0 0.9 0.00 0.11 0.00 92 1013.1
20260905114310 72 175 0.0 0.9 0.00 0.11 0.00 92 1013.1
20260905113810 72 175 0.0 1.7 0.00 0.11 0.00 92 1013.0
20260905113310 72 180 0.0 1.7 0.00 0.11 0.00 92 1012.9
20260905112810 72 180 0.0 1.7 0.00 0.11 0.00 92 1012.9
20260905112331 72 180 0.0 1.7 0.00 0.11 0.00 92 1012.8
20260905111810 72 155 0.0 1.7 0.00 0.11 0.00 92 1012.8
20260905111331 72 155 0.0 3.5 0.00 0.11 0.00 92 1012.7
20260905110810 72 207 0.0 3.5 0.00 0.11 0.00 92 1012.7
20260905110310 72 207 0.0 3.5 0.00 0.11 0.00 92 1012.5
20260905105831 72 172 0.0 4.3 0.00 0.11 0.00 92 1012.6
20260905105332 72 172 0.0 4.3 0.00 0.11 0.00 93 1012.5
20260905104810 72 169 0.0 4.3 0.00 0.11 0.00 93 1012.4
20260905104310 72 229 0.0 1.7 0.00 0.11 0.00 93 1012.4
20260905103810 72 229 0.0 3.5 0.00 0.11 0.00 93 1012.5
20260905103310 72 229 0.0 3.5 0.00 0.11 0.00 93 1012.4
20260905102810 72 167 0.0 1.7 0.00 0.11 0.00 93 1012.4
20260905102310 71 181 0.0 1.7 0.00 0.11 0.00 93 1012.3
20260905101831 71 180 0.0 0.0 0.00 0.11 0.00 93 1012.4
20260905101310 71 180 0.0 0.0 0.00 0.11 0.00 92 1012.4
20260905100811 71 180 0.0 0.0 0.00 0.11 0.00 93 1012.3